Weather in Boden

Sweden     65°49′26″N   21°41′45″E
temp.,
°C
wind,
m/s
gust,
m/s
humid.,
%
clouds,
%
prec.,
mm/h
press.,
hPa
HPBL,
m
22 january, sat
sat2201:00−13w11955 0.0 10209
04:00−11s119162 0.0 101935
07:00−8s31179100 0.0 1018246
10:00−5s41380100 0.0 1016541
13:00−4s4109499 0.8 1014475
16:00−5s499582 0.1 1013281
19:00−5s3895100 0.1 1011180
22:00−3s31295100 0.0 1009284
23 january, sun
sun2301:00+4sw61588100 0.0 1007537
04:00+4sw51384100 0.0 1007388
07:00+2sw31088100 0.0 1009158
10:00+3sw41387100 0.0 1011364
13:00+5sw51586100 0.0 1011544
16:00+5wsw5138399 0.0 1011475
19:00+4sw5138244 0.0 1011426
22:00+6sw6147681 0.0 1010542
24 january, mon
mon2401:00+5sw61569100 0.0 1009627
04:00+2ssw51488100 0.0 1006374
07:000s41392100 0.0 1003336
10:00+2ssw41479100 0.0 1000539
13:00+4wsw41177100 0.0 999323
16:00+2w614600 0.0 1001787
19:000w5146997 0.0 1002526
22:000wnw5137874 0.0 1004822
25 january, tue
tue2501:00−1wnw614550 0.0 1007816
04:00−2wnw613580 0.0 1011913
07:00−3wnw513604 0.0 1015675
10:00−3wnw513595 0.0 1018532
13:00−3wnw512610 0.0 1020470
16:00−4w4126711 0.0 1021402
19:00−4w31171100 0.0 1020325
22:00−4sw297771 0.0 1018212
26 january, wed
wed2601:00−3ssw41372100 0.0 1014476
04:00−3ssw51375100 0.0 1010693
07:00−3ssw51592100 1.1 1005723
10:00−2ssw51695100 2.6 1002791
13:00−2ssw51185100 3.4 999509
16:00−3ssw399012 0.0 997312
19:00−5s259627 0.0 997104
22:00−6ssw119888 0.0 99711